This demonstration page uses our WeatherBlox Daily Observations layout. Learn more.

41.55636, -103.73856

Hourly Observations for March 7, 2019

Temp ( °F °C ) Dew Point ( °F °C ) Humidity (%) Winds ( mph kmh ) Pressure ( in mb ) Visibility ( mi km ) Precip ( " mm )
12:58 am 00:58 Cloudy with Snow 22 -5.4 20 -6.6 91 91 E 16 26 30.02 1017 0.5 0.80467 0 0
1:58 am 01:58 Cloudy with Light Snow 22 -5.6 20 -6.8 91 91 SE 17 28 30.02 1017 1 1.60934 0 0
2:58 am 02:58 Cloudy with Light Snow 21 -6.1 19 -7.5 90 90 SE 14 22 30.07 1018 0.75 1.207005 0 0
3:58 am 03:58 Cloudy with Light Snow 19 -7 17 -8.3 91 91 SE 13 20 30.08 1019 1 1.60934 0 0
4:58 am 04:58 Cloudy 18 -7.7 16 -9.1 90 90 SSE 12 19 30.07 1018 10 16.0934 0 0
5:58 am 05:58 Windy with Snow Showers Likely 17 -8.3 15 -9.6 90 90 SSE 20 31 29.98 1015 2.25 3.621015 0 0
6:58 am 06:58 Mostly Cloudy with Scattered Snow Showers 17 -8.6 14 -9.8 91 91 SSE 12 19 30.04 1017 6 9.65604 0 0
7:58 am 07:58 Cloudy with Light Snow Showers 15 -9.3 13 -10.5 91 91 SSE 15 24 30.02 1017 3 4.82802 0 0
8:58 am 08:58 Cloudy with Light Snow 16 -9 14 -10.2 91 91 S 17 28 29.99 1016 1.5 2.41401 0 0
9:58 am 09:58 Cloudy with Light Snow 17 -8.4 15 -9.6 91 91 S 16 26 29.97 1015 0.75 1.207005 0 0
10:58 am 10:58 Mostly Cloudy with Scattered Snow Showers 18 -7.7 16 -8.9 91 91 S 14 22 29.98 1015 0.5 0.80467 0 0
11:58 am 11:58 Mostly Cloudy with Scattered Snow Showers 19 -7.1 17 -8.2 92 92 S 12 19 29.97 1015 0.25 0.402335 0 0
12:58 pm 12:58 Mostly Cloudy with Scattered Snow Showers 21 -5.9 20 -6.9 93 93 SSW 14 22 29.97 1015 0.25 0.402335 0 0
1:58 pm 13:58 Mostly Cloudy with Scattered Snow Showers 22 -5.5 20 -6.5 93 93 SW 8 13 29.98 1015 1 1.60934 0 0
2:58 pm 14:58 Cloudy with Mist and Fog 17 -8.5 14 -9.8 90 90 W 3 6 30.01 1016 7 11.26538 0 0
3:58 pm 15:58 Mostly Cloudy with Freezing Fog 23 -4.9 22 -5.8 94 94 S 5 7 30 1016 0.25 0.402335 0.01 0.254
4:58 pm 16:58 Mostly Cloudy with Light Snow Showers 24 -4.5 22 -5.3 94 94 SSW 8 13 29.99 1016 5 8.0467 0.04 1.016
5:58 pm 17:58 Mostly Cloudy with Light Snow Showers 26 -3.5 24 -4.4 94 94 S 12 19 29.97 1015 1 1.60934 0.05 1.27
6:58 pm 18:58 Mostly Cloudy with Mist and Fog 27 -2.8 26 -3.5 95 95 SSW 9 15 29.97 1015 2 3.21868 0 0
7:58 pm 19:58 Mostly Cloudy with Mist and Fog 28 -2.2 27 -2.9 95 95 S 15 24 29.96 1015 2.25 3.621015 0 0
8:58 pm 20:58 Partly Cloudy with Mist and Fog 29 -1.6 28 -2.3 95 95 SSW 15 24 29.93 1013 3 4.82802 0 0
9:59 pm 21:59 Partly Cloudy with Mist and Fog 32 0 28 -2.2 85 85 SSW 15 24 29.93 1014 6 9.65604 0 0
10:58 pm 22:58 Mostly Cloudy 32 0.1 28 -2 86 86 SSW 14 22 29.94 1014 7 11.26538 0 0
11:58 pm 23:58 Mostly Cloudy with Mist and Fog 33 0.7 30 -1.3 87 87 SSW 12 19 29.93 1013 6 9.65604 0 0

Powered by AerisWeather